Regional Weather Roundup
Issued by NWS Northern Indiana

Home | Current Version | Previous Version | Graphics & Text | Print | Product List | Glossary On
Versions: 1 2 3 4 5 6 7 8 9 10 11 12 13 14 15 16 17 18 19 20 21 22 23 24 25 26 27 28 29 30 31 32 33 34 35 36 37 38 39 40 41 42 43 44 45 46 47 48 49 50
000
ASUS43 KIWX 291110
RWRIWX

KIWX WEATHER ROUNDUP
NATIONAL WEATHER SERVICE NORTHERN INDIANA
700 AM EDT SUN MAR 29 2015

NOTE: "FAIR" INDICATES FEW OR NO CLOUDS BELOW 12,000 FEET WITH NO
SIGNIFICANT WEATHER AND/OR OBSTRUCTIONS TO VISIBILITY.

* THESE STATIONS ARE NOT UNDER NWS QUALITY CONTROL. THEY ALSO MAY NOT
  REPORT WEATHER SUCH AS PRECIPITATION OR FOG.

INZ001>027-291200-
NORTHERN INDIANA

CITY           SKY/WX    TMP DP  RH WIND       PRES   REMARKS
GARY*          CLEAR     30  12  47 S9        30.18F WCI  22
VALPARAISO     PTCLDY    26  17  68 S8        30.20F WCI  18
MICHIGAN CITY* MOCLDY    28  12  50 S10G16    30.20S WCI  19
LAPORTE*       PTCLDY    28  18  67 S9        30.21S WCI  19
KNOX*            N/A     28   5  37 S13       30.21S WCI  18
SOUTH BEND     PTCLDY    28  15  58 S12       30.21F WCI  18
GOSHEN         CLEAR     26  16  65 S10       30.23F WCI  16
MONTICELLO*    CLEAR     28  19  69 S7        30.22F WCI  21
LOGANSPORT*    CLEAR     28  19  69 S12       30.25F WCI  18
ROCHESTER*     PTCLDY    30  19  64 S10       30.24F WCI  21
WARSAW*        CLEAR     27  18  69 S5        30.24F WCI  21
ANGOLA*        CLEAR     21  14  73 S6        30.23F WCI  14
FORT WAYNE     PTCLDY    24  17  74 S12       30.28R WCI  13
HUNTINGTON*    CLEAR     24  13  63 S5        30.27S WCI  18
PERU/GRISSOM   PTCLDY    26  18  71 SE9       30.23F WCI  17
MARION*        CLEAR     25  16  70 S9        30.28S WCI  15

$$
INZ028>050-291200-
CENTRAL INDIANA

CITY           SKY/WX    TMP DP  RH WIND       PRES   REMARKS
LAFAYETTE      CLEAR     28  16  60 S8        30.24F WCI  20
KOKOMO*          N/A     27  18  69 S12       30.26S WCI  16
MUNCIE*        CLEAR     26  14  60 S9        30.27F WCI  17
INDIANAPOLIS   CLEAR     25  15  66 SE10      30.26F WCI  15

$$
MIZ043>046-050>051-056>058-064>065-071>073-077>080-291200-
SOUTHWEST LOWER MICHIGAN

CITY           SKY/WX    TMP DP  RH WIND       PRES   REMARKS
BATTLE CREEK   CLEAR     24  14  65 S9        30.21S WCI  14
BENTON HARBOR  MOCLDY    26  16  65 S10       30.19F WCI  16
COLDWATER*     CLEAR     25  13  62 S6        30.22F WCI  18
HILLSDALE*     CLEAR     22  13  67 S7        30.22F WCI  13
HOLLAND        PTCLDY    25  14  63 S9        30.18F WCI  15
GRAND RAPIDS   PTCLDY    23  13  65 S8        30.18F WCI  14
KALAMAZOO      CLEAR     25  15  66 S12       30.21F WCI  14
STURGIS*       CLEAR     23  16  74 S8        30.22S WCI  14
THREE RIVERS*  FAIR      24  17  74 S9        30.22F WCI  14

$$
OHZ001>008-015>018-024>025-291200-
NORTHWEST OHIO

CITY           SKY/WX    TMP DP  RH WIND       PRES   REMARKS
WAUSEON*       FAIR      23  16  74 SW7       30.27R WCI  15
DEFIANCE       CLEAR     22  15  75 S5        30.29R WCI  16
FINDLAY        CLEAR     23  16  74 S10       30.29S WCI  12
TOLEDO EXPRESS CLEAR     23  14  68 S7        30.27F WCI  15
TOLEDO METCALF CLEAR     20  13  74 S8        30.29F WCI  10
LIMA           CLEAR     23  14  68 S8        30.29S WCI  14

$$
AND FOR LAKE MICHIGAN COASTAL AND OPEN LAKE BUOY OBSERVATIONS

STATION/POSITION TEMP    WIND        PRES    VSBY  WAVE
                 AIR SEA DIR/SP/G                  HT/PER
                 (F)     (DEG/KT/KT) (MB)    (MI)  (FT/S)
MICHIGAN CITY     28     150/ 13/ 17   N/A
BURNS HARBOR      29     180/ 12/ 20 1022.7S
SAINT JOSEPH      27     160/  4/ 12 1023.0F

$$
&&



USA.gov is the U.S. government's official web portal to all federal, state and local government web resources and services.